Regional Weather Roundup
Issued by NWS Green Bay, WI

Home | Current Version | Previous Version | Text Only | Print | Product List | Glossary On
Versions: 1 2 3 4 5 6 7 8 9 10 11 12 13 14 15 16 17 18 19 20 21 22 23 24 25 26 27 28 29 30 31 32 33 34 35 36 37 38 39 40 41 42 43 44 45 46 47 48 49 50
000
ASUS43 KGRB 270011
RWRGRB

NORTH-CENTRAL AND NORTHEAST WISCONSIN REGIONAL WEATHER ROUNDUP
NATIONAL WEATHER SERVICE GREEN BAY WI
700 PM CDT TUE MAY 26 2015

WIZ005-009-010>012-018-019-270100-
NORTH CENTRAL WISCONSIN

CITY           SKY/WX    TMP DP  RH WIND       PRES   REMARKS
IRONWOOD       CLOUDY    54  54 100 CALM      29.73S
MANITOWISH WTR LGT RAIN  56  56 100 N5        29.72F
ARBOR VITAE    DRIZZLE   59  58  94 N8        29.71F
EAGLE RIVER    CLOUDY    62  61  96 N6        29.70F
LAND O LAKES   CLOUDY    60  59  97 N7        29.72S
RHINELANDER    LGT RAIN  62  60  93 NE7       29.69S
PHILLIPS       CLOUDY    60  59  98 N8        29.70S
ANTIGO         CLOUDY    62  60  94 E13       29.65F
TOMAHAWK       LGT RAIN  64  60  89 NE6       29.68S
MERRILL        RAIN      63  63  99 CALM      29.67S
$$

WIZ013-073-270100-
NORTHEAST WISCONSIN

CITY           SKY/WX    TMP DP  RH WIND       PRES   REMARKS
IRON MOUNTAIN  RAIN      64  62  93 E10       29.69F FOG
MARINETTE      CLOUDY    59  55  88 E8        29.66F
OCONTO         CLOUDY    63  63 100 SE7       29.64F
$$

WIZ017-030-035>037-045-270100-
CENTRAL WISCONSIN

CITY           SKY/WX    TMP DP  RH WIND       PRES   REMARKS
MEDFORD        HVY RAIN  62  60  94 NE7       29.67F
WAUSAU         HVY RAIN  64  62  93 N5        29.63S FOG
MOSINEE        LGT RAIN  63  63 100 W5        29.65S
MARSHFIELD     CLOUDY    63  60  90 NE5       29.64S
WISC RAPIDS    LGT RAIN  66  63  90 NE8       29.63F
STEVENS POINT  LGT RAIN  63  62  98 W3        29.64S
WAUPACA        PTSUNNY   70  68  94 CALM      29.62S
SHAWANO        CLOUDY    68  66  95 SE9       29.62F FOG
CLINTONVILLE   CLOUDY    70  66  88 SW6       29.62S
$$

WIZ038-039-048-051-270100-
FOX VALLEY

CITY           SKY/WX    TMP DP  RH WIND       PRES   REMARKS
NWS GREEN BAY  MOSUNNY   71  65  81 SE13      29.63F
APPLETON       PTSUNNY   72  61  68 S13G18    29.63F
OSHKOSH        CLOUDY    69  65  86 S9        29.63S
FOND DU LAC    PTSUNNY   69  63  81 S13       29.65R
$$

WIZ022-050-052-270100-
EAST CENTRAL WISCONSIN

CITY           SKY/WX    TMP DP  RH WIND       PRES   REMARKS
STURGEON BAY   CLOUDY    63  57  82 SE14      29.70F VSB 1/2
MANITOWOC      FOG       52  51  97 SE7       29.68F VSB<1/4
SHEBOYGAN      MOSUNNY   63  59  87 SE7       29.67R
$$

LMZ563-521-522-541>543-270100-
LAKESHORE

STATION/POSITION TIME  TEMP    WIND        PRES    VSBY  WAVE
                       AIR SEA DIR/SP/G                  HT/PER
                 (UTC) (F)     (DEG/KT/KT) (MB)    (MI)  (FT/S)
SHEBOYGAN LKSHOR 0000   47     170/ 14/ 15 1005.3F
KEWAUNEE LKSHORE 2300   51     170/  7/  9 1005.1F
ALGOMA MARINA    2338          170/  3/  5   N/A
NORTHPORT PIER   2300   53      60/  1/  2 1006.4F
N MID LAKE BUOY  2350   43 37   70/ 10/ 12 1006.8F         2/ 5
SISTER BAY LKSHO 2318   64     160/ 10/ 13   N/A
STURGEON BAY CG  2355   50     170/  4       N/A     3/8
CHAMBERS ISLAND  2300   58      60/  5/  6 1005.8F
MENOMINEE LKSHOR 2300   57      50/  7/ 13 1006.1F
$$



USA.gov is the U.S. government's official web portal to all federal, state and local government web resources and services.